Date,TemperatureHighF,TemperatureAvgF,TemperatureLowF,DewpointHighF,DewpointAvgF,DewpointLowF,HumidityHigh,HumidityAvg,HumidityLow,PressureMaxIn,PressureMinIn,WindSpeedMaxMPH,WindSpeedAvgMPH,GustSpeedMaxMPH,PrecipitationSumIn
2013-11-1,65.3,60.5,54.7,62.0,58.3,53.0,98,92,78,29.81,29.51,10,1,17,0.14
2013-11-2,64.8,55.1,49.6,54.0,45.9,43.0,95,72,50,29.75,29.59,7,1,9,0.01
2013-11-3,49.2,42.4,32.6,44.0,33.5,17.0,91,72,52,30.43,29.74,10,3,15,0.00
2013-11-4,41.6,35.9,30.6,21.0,18.6,16.0,58,50,39,30.68,30.43,11,2,16,0.00
2013-11-5,49.6,42.1,32.1,40.2,34.2,22.0,84,74,58,30.68,30.51,8,1,11,0.00
2013-11-6,58.7,51.4,44.0,52.0,46.8,40.0,97,85,64,30.50,30.06,7,0,11,0.00
2013-11-7,60.3,52.2,39.7,59.0,50.4,33.9,99,93,80,30.05,29.70,8,1,14,0.22
2013-11-8,46.4,39.2,34.1,34.0,31.1,28.0,88,73,52,30.16,29.86,8,2,19,0.00
2013-11-9,44.6,40.6,31.3,35.4,30.7,27.0,86,68,54,30.26,30.00,7,0,7,0.00
2013-11-10,58.5,46.4,42.9,40.8,37.0,32.0,87,70,44,30.00,29.75,15,2,22,0.01
2013-11-11,51.4,44.7,36.8,35.1,31.6,28.0,74,60,43,30.15,29.93,15,1,18,0.00
2013-11-12,48.3,34.0,27.3,38.6,25.9,18.8,94,73,57,30.22,29.90,16,4,17,0.05
2013-11-13,34.7,29.1,23.6,20.5,17.3,14.0,74,62,43,30.32,30.22,12,3,17,0.00
2013-11-14,49.8,38.9,27.8,23.6,20.5,16.8,76,50,28,30.23,30.10,12,1,14,0.00
2013-11-15,56.4,45.5,38.7,34.9,26.2,16.9,70,48,27,30.23,30.14,7,0,9,0.00
2013-11-16,58.7,49.0,44.0,45.5,37.9,25.9,97,67,40,30.31,30.20,10,1,11,0.00
2013-11-17,57.6,52.6,45.7,57.3,52.1,44.6,100,98,94,30.27,29.81,9,1,11,0.05
2013-11-18,62.1,56.4,47.9,59.4,45.0,27.6,100,69,44,29.82,29.57,13,2,19,0.34
2013-11-19,47.9,39.6,30.7,31.2,26.0,20.7,67,58,46,30.32,29.70,20,5,27,0.00
2013-11-20,40.6,33.1,26.6,21.0,16.1,11.0,69,51,32,30.62,30.31,18,3,18,0.00
2013-11-21,46.9,38.2,28.8,39.8,26.4,14.9,86,63,40,30.63,30.39,9,1,9,0.00
2013-11-22,50.7,47.2,43.7,50.1,45.4,39.5,98,93,85,30.39,29.85,7,0,10,0.11
2013-11-23,50.1,39.6,28.2,47.6,28.7,12.0,95,67,41,29.97,29.84,17,5,24,0.01
2013-11-24,28.0,23.2,20.7,15.7,6.9,0.0,64,50,33,30.29,29.88,25,7,27,0.00
2013-11-25,32.0,24.7,15.5,19.1,13.4,9.0,77,63,46,30.44,30.30,9,1,10,0.00
2013-11-26,39.2,34.3,30.2,38.7,24.1,16.0,98,68,48,30.33,29.89,11,1,12,0.32
2013-11-27,60.5,47.2,34.9,60.2,46.0,30.0,100,96,78,29.90,29.27,30,6,30,2.72
2013-11-28,34.8,29.3,24.7,30.9,17.6,12.0,89,62,49,30.46,29.60,18,5,23,0.00
2013-11-29,34.9,28.8,23.8,22.0,17.7,14.0,70,63,55,30.72,30.45,8,1,11,0.00
2013-11-30,33.6,26.1,18.5,28.6,16.4,10.0,82,67,43,30.76,30.40,8,1,10,0.00